984  
ASUS41 KALY 201710  
RWRALY  
 
NEW YORK STATE HOURLY WEATHER ROUNDUP  
NATIONAL WEATHER SERVICE ALBANY NY  
100 PM EDT MON AUG 20 2018  
 
NOTE: "FAIR" INDICATES FEW OR NO CLOUDS BELOW 12,000 FEET WITH NO  
SIGNIFICANT WEATHER AND/OR NO S TO VISIBILITY
.  
 
NYZ032-033-038>043-046>054-057>066-NYZ062>081-082-084-201800-  
EAST  
 
 
CITY SKY/WX TMP DP RH WIND PRES REMARKS
 
ALBANY PTSUNNY 75 59 57 CALM 30.16F  
GLENS FALLS FAIR 76 60 57 E6 30.15F  
POUGHKEEPSIE CLOUDY 78 61 55 VRB3 30.12F  
NEWBURGH PTSUNNY 75 64 69 N5 30.16F  
MONTGOMERY N/A 75 63 66 MISG 30.14F  
WHITE PLAINS PTSUNNY 72 63 73 NE5 30.14S  
ISLIP CLOUDY 71 65 81 NE9 30.13S  
NEW YORK CITY CLOUDY 72 63 73 NE10 30.14S  
CENTRAL PARK CLOUDY 72 64 76 E5 30.17S  

 
 
NYZ005>009-017-018-044>046-055-056-201800-  
CENTRAL  
 
 
CITY SKY/WX TMP DP RH WIND PRES REMARKS
 
FULTON FAIR 76 60 57 SE8 30.13F  
SYRACUSE FAIR 76 62 62 VRB7 30.13F  
ROME FAIR 76 59 55 SE8 30.17F  
ELMIRA FAIR 75 61 61 SE12 30.12F  
BINGHAMTON FAIR 69 58 67 SE8 30.17F  
MONTICELLO CLOUDY 70 59 68 SE6 30.19F  

 
 
NYZ026>034-041>043-087-201800-  
NORTH  
 
 
CITY SKY/WX TMP DP RH WIND PRES REMARKS
 
WATERTOWN FAIR 78 58 49 VRB6 30.12F  
FORT DRUM NOT AVBL  
OGDENSBURG FAIR 81 58 45 S3 30.12F  
MASSENA FAIR 81 58 45 SE3 30.14F  
SARANAC LAKE FAIR 74 53 48 MISG 30.18F  
PLATTSBURGH NOT AVBL  

 
 
NYZ001>004-010>016-019>021-085-201800-  
WEST  
 
 
CITY SKY/WX TMP DP RH WIND PRES REMARKS
 
NIAGARA FALLS FAIR 78 64 61 SE8 30.06F  
BUFFALO FAIR 77 64 64 E7 30.07F  
DUNKIRK PTSUNNY 77 64 64 SE8 30.06F  
JAMESTOWN PTSUNNY 73 61 65 SE9 30.10F  
WELLSVILLE CLOUDY 70 62 76 S10 30.15F  
ROCHESTER PTSUNNY 76 66 71 SE9 30.10F  
PENN YAN FAIR 73 62 68 SE8 30.14F  

 
 
KEY  
WCI = WIND CHILL INDEX  
VSB = VISIBILITY  
HX = HEAT INDEX  

 
 
 
CLICK HERE TO GO TO PREVIOUS BULLETINS.

The Nexlab NY Page
The Nexlab VT Page
The Nexlab MA Page
The Nexlab CT Page Main Text Page